Home   Weather   Germering   Past weeks

Flag for Germany Past Weather in Germering, Bavaria, Germany — Yesterday and Last 2 Weeks

Now
46 °F

Cool.


Feels Like: 46 °F
Forecast: 52 / 75 °F
Wind: 2 mph from North

Location: Landsberg

Current Time: May 26, 2017 at 5:49:21 am

Latest Report: May 26, 2017 at 4:20 am


Visibility: N/A

Pressure: 30.15 "Hg (28.24 "Hg at 538m altitude)

Humidity: 82%

Dew Point: 41 °F

Location of GermeringLocation

Past Weather in Germering — Graph

°F

Germering Temperature Yesterday

Maximum temperature yesterday: 66 °F (at 3:20 pm)
Minimum temperature yesterday: 50 °F (at 6:05 am)
Average temperature yesterday: 57 °F

High & Low Weather Summary for the Past Weeks

 TemperatureHumidityPressure
High77 °F (May 18, 5:20 pm)100% (May 25, 6:20 am)30.45 "Hg (May 25, 6:20 am)
Low41 °F (May 11, 5:20 am)30% (May 11, 11:20 am)29.50 "Hg (May 11, 6:20 pm)
Average59 °F66%30.08 "Hg
* Reported May 11 4:20 am — May 26 4:20 am, Germering. Weather by CustomWeather, © 2017

Note: Actual official high and low records may vary slightly from our data, if they occured in-between our weather recording intervals... More about our weather records

Advertising

Germering Weather History for the Previous 24 Hours

Scroll right to see more
 ConditionsComfort  
Time TempWeatherWind HumidityBarometerVisibility
4:20 am
Fri, May 26
46 °FCool.2 mph82%30.15 "HgN/A
3:20 am46 °FCool.5 mph87%30.15 "HgN/A
2:20 am48 °FCool.2 mph82%30.18 "HgN/A
1:20 am50 °FCool.2 mph76%30.18 "HgN/A
12:20 am50 °FCool.3 mph76%30.18 "HgN/A
11:20 pm
Thu, May 25
52 °FCool.3 mph77%30.18 "HgN/A
10:20 pm54 °FPassing clouds.2 mph72%30.18 "HgN/A
9:20 pm57 °FPassing clouds.3 mph63%30.18 "HgN/A
8:20 pm61 °FPassing clouds.7 mph55%30.15 "HgN/A
7:20 pm64 °FPassing clouds.9 mph49%30.15 "HgN/A
6:20 pm64 °FPassing clouds.12 mph43%30.18 "HgN/A
5:20 pm66 °FPassing clouds.7 mph43%30.18 "HgN/A
4:20 pm64 °FScattered clouds.8 mph46%30.18 "HgN/A
3:20 pm66 °FScattered clouds.8 mph46%30.18 "HgN/A
2:20 pm64 °FScattered clouds.9 mph52%30.18 "HgN/A
1:20 pm63 °FScattered clouds.9 mph52%30.21 "HgN/A
12:20 pm63 °FScattered clouds.7 mph52%30.21 "HgN/A
11:20 am61 °FScattered clouds.6 mph59%30.21 "HgN/A
10:20 am59 °FScattered clouds.1 mph63%30.21 "HgN/A
9:37 am59 °FScattered clouds.3 mph68%30.21 "Hg6 mi
8:20 am55 °FScattered clouds.3 mph82%30.21 "Hg4 mi
7:20 am50 °FFog.3 mph94%30.21 "Hg2 mi
6:20 am50 °FFog.2 mph100%30.21 "Hg0 mi
6:05 am50 °FFog.2 mph94%30.21 "Hg0 mi
5:20 am52 °FFog.3 mph94%30.21 "Hg2 mi
5:03 am52 °FFog.1 mph94%30.21 "Hg4 mi
Weather by CustomWeather, © 2017

See weather overviewHow to use our weather pages